Wetterdaten: Mittwoch, 25.03.2015
Datum Zeit Temp. A. Feuchte A. Luftdruck Regen Wind Richtung Richtung Sonnenschein ET UV Solar Taupunkt Windchill Windben Empfang
25.03.2015 00:00 3,7 C 84 % 1007,0 hPa 0,0 l/m 0,0 km/h (0 Bft) S 172 0 min 0,000 mm 0,0 UV-I 0 W/m 1,3 C 3,7 C 0,0 km/h (0 Bft) 0,00 %
25.03.2015 00:15 3,5 C 85 % 1006,8 hPa 0,0 l/m 0,0 km/h (0 Bft) S 172 0 min 0,000 mm 0,0 UV-I 0 W/m 1,2 C 3,5 C 0,0 km/h (0 Bft) 0,00 %
25.03.2015 00:30 3,1 C 84 % 1006,6 hPa 0,0 l/m 0,0 km/h (0 Bft) S 173 0 min 0,000 mm 0,0 UV-I 0 W/m 0,7 C 3,1 C 0,0 km/h (0 Bft) 0,00 %
25.03.2015 00:45 3,0 C 86 % 1006,9 hPa 0,0 l/m 0,0 km/h (0 Bft) S 173 0 min 0,000 mm 0,0 UV-I 0 W/m 0,9 C 3,0 C 0,0 km/h (0 Bft) 0,00 %
25.03.2015 01:00 3,0 C 86 % 1006,7 hPa 0,0 l/m 0,0 km/h (0 Bft) S 173 0 min 0,000 mm 0,0 UV-I 0 W/m 0,9 C 3,0 C 0,0 km/h (0 Bft) 0,00 %
25.03.2015 01:15 3,0 C 86 % 1006,5 hPa 0,0 l/m 0,0 km/h (0 Bft) S 173 0 min 0,000 mm 0,0 UV-I 0 W/m 0,9 C 3,0 C 0,0 km/h (0 Bft) 0,00 %
25.03.2015 01:30 2,8 C 86 % 1006,8 hPa 0,0 l/m 0,0 km/h (0 Bft) S 173 0 min 0,000 mm 0,0 UV-I 0 W/m 0,7 C 2,8 C 0,0 km/h (0 Bft) 0,00 %
25.03.2015 01:45 2,8 C 86 % 1006,7 hPa 0,0 l/m 0,0 km/h (0 Bft) S 186 0 min 0,000 mm 0,0 UV-I 0 W/m 0,7 C 2,8 C 0,0 km/h (0 Bft) 0,00 %
25.03.2015 02:00 3,0 C 85 % 1006,3 hPa 0,0 l/m 0,0 km/h (0 Bft) S 176 0 min 0,000 mm 0,0 UV-I 0 W/m 0,7 C 3,0 C 0,0 km/h (0 Bft) 0,00 %
25.03.2015 02:15 2,8 C 85 % 1006,3 hPa 0,0 l/m 0,0 km/h (0 Bft) S 173 0 min 0,000 mm 0,0 UV-I 0 W/m 0,5 C 2,8 C 0,0 km/h (0 Bft) 0,00 %
25.03.2015 02:30 2,5 C 86 % 1006,1 hPa 0,0 l/m 0,0 km/h (0 Bft) S 172 0 min 0,000 mm 0,0 UV-I 0 W/m 0,4 C 2,5 C 0,0 km/h (0 Bft) 0,00 %
25.03.2015 02:45 2,7 C 85 % 1005,8 hPa 0,0 l/m 0,0 km/h (0 Bft) SO 131 0 min 0,000 mm 0,0 UV-I 0 W/m 0,4 C 2,7 C 0,0 km/h (0 Bft) 0,00 %
25.03.2015 03:00 3,0 C 85 % 1006,0 hPa 0,0 l/m 0,0 km/h (0 Bft) S 172 0 min 0,000 mm 0,0 UV-I 0 W/m 0,7 C 3,0 C 0,0 km/h (0 Bft) 0,00 %
25.03.2015 03:15 2,4 C 80 % 1006,0 hPa 0,0 l/m 0,0 km/h (0 Bft) S-SW 201 0 min 0,000 mm 0,0 UV-I 0 W/m -0,7 C 2,4 C 0,0 km/h (0 Bft) 0,00 %
25.03.2015 03:30 2,0 C 81 % 1006,0 hPa 0,0 l/m 0,0 km/h (0 Bft) S-SW 205 0 min 0,000 mm 0,0 UV-I 0 W/m -0,9 C 2,0 C 0,0 km/h (0 Bft) 0,00 %
25.03.2015 03:45 1,6 C 82 % 1006,1 hPa 0,0 l/m 0,0 km/h (0 Bft) S 183 0 min 0,000 mm 0,0 UV-I 0 W/m -1,1 C 1,6 C 0,0 km/h (0 Bft) 0,00 %
25.03.2015 04:00 1,4 C 83 % 1005,9 hPa 0,0 l/m 0,0 km/h (0 Bft) S 182 0 min 0,000 mm 0,0 UV-I 0 W/m -1,2 C 1,4 C 0,0 km/h (0 Bft) 0,00 %
25.03.2015 04:15 1,3 C 83 % 1005,9 hPa 0,0 l/m 0,0 km/h (0 Bft) S 182 0 min 0,000 mm 0,0 UV-I 0 W/m -1,3 C 1,3 C 0,0 km/h (0 Bft) 0,00 %
25.03.2015 04:30 1,5 C 84 % 1006,1 hPa 0,0 l/m 0,0 km/h (0 Bft) S 182 0 min 0,000 mm 0,0 UV-I 0 W/m -0,9 C 1,5 C 0,0 km/h (0 Bft) 0,00 %
25.03.2015 04:45 1,6 C 84 % 1005,6 hPa 0,0 l/m 0,0 km/h (0 Bft) S 182 0 min 0,000 mm 0,0 UV-I 0 W/m -0,8 C 1,6 C 0,0 km/h (0 Bft) 0,00 %
25.03.2015 05:00 1,0 C 85 % 1005,8 hPa 0,0 l/m 0,0 km/h (0 Bft) S 172 0 min 0,000 mm 0,0 UV-I 0 W/m -1,2 C 1,0 C 0,0 km/h (0 Bft) 0,00 %
25.03.2015 05:15 1,4 C 85 % 1005,5 hPa 0,0 l/m 0,0 km/h (0 Bft) S 179 0 min 0,000 mm 0,0 UV-I 0 W/m -0,8 C 1,4 C 0,0 km/h (0 Bft) 0,00 %
25.03.2015 05:30 1,5 C 84 % 1005,6 hPa 0,0 l/m 0,0 km/h (0 Bft) S 179 0 min 0,000 mm 0,0 UV-I 0 W/m -0,9 C 1,5 C 0,0 km/h (0 Bft) 0,00 %
25.03.2015 05:45 1,7 C 84 % 1005,7 hPa 0,0 l/m 0,0 km/h (0 Bft) S 173 0 min 0,000 mm 0,0 UV-I 0 W/m -0,7 C 1,7 C 0,0 km/h (0 Bft) 0,00 %
25.03.2015 06:00 1,3 C 85 % 1005,5 hPa 0,0 l/m 0,0 km/h (0 Bft) S-SW 195 0 min 0,000 mm 0,0 UV-I 0 W/m -0,9 C 1,3 C 0,0 km/h (0 Bft) 0,00 %
25.03.2015 06:15 1,4 C 84 % 1005,2 hPa 0,0 l/m 0,0 km/h (0 Bft) S 176 0 min 0,000 mm 0,0 UV-I 6 W/m -1,0 C 1,4 C 0,0 km/h (0 Bft) 0,00 %
25.03.2015 06:30 2,3 C 88 % 1005,3 hPa 0,0 l/m 0,0 km/h (0 Bft) S 173 15 min 0,000 mm 0,0 UV-I 60 W/m 0,5 C 2,3 C 0,0 km/h (0 Bft) 0,00 %
25.03.2015 06:45 3,2 C 83 % 1005,3 hPa 0,0 l/m 2,2 km/h (1 Bft) O-SO 109 15 min 0,000 mm 1,0 UV-I 77 W/m 0,6 C 3,2 C 4,0 km/h (1 Bft) 0,00 %
25.03.2015 07:00 4,1 C 80 % 1004,8 hPa 0,0 l/m 0,4 km/h (0 Bft) O-SO 122 0 min 0,000 mm 1,0 UV-I 88 W/m 1,0 C 4,1 C 4,0 km/h (1 Bft) 0,00 %
25.03.2015 07:15 4,5 C 77 % 1004,7 hPa 0,0 l/m 0,0 km/h (0 Bft) O-SO 113 0 min 0,000 mm 1,0 UV-I 112 W/m 0,8 C 4,5 C 0,0 km/h (0 Bft) 0,00 %
25.03.2015 07:30 4,5 C 76 % 1004,9 hPa 0,0 l/m 0,4 km/h (0 Bft) SO 128 15 min 0,000 mm 1,0 UV-I 144 W/m 0,6 C 4,5 C 4,0 km/h (1 Bft) 0,00 %
25.03.2015 07:45 4,8 C 77 % 1004,4 hPa 0,0 l/m 0,0 km/h (0 Bft) O-SO 115 0 min 0,000 mm 1,0 UV-I 155 W/m 1,1 C 4,8 C 0,0 km/h (0 Bft) 0,00 %
25.03.2015 08:00 5,2 C 75 % 1004,1 hPa 0,0 l/m 2,2 km/h (1 Bft) O-SO 116 0 min 0,000 mm 1,0 UV-I 177 W/m 1,1 C 5,2 C 4,0 km/h (1 Bft) 0,00 %
25.03.2015 08:15 5,4 C 73 % 1004,0 hPa 0,0 l/m 4,3 km/h (1 Bft) O-SO 115 0 min 0,000 mm 2,0 UV-I 188 W/m 1,0 C 5,4 C 7,9 km/h (2 Bft) 0,00 %
25.03.2015 08:30 5,5 C 73 % 1004,1 hPa 0,0 l/m 0,4 km/h (0 Bft) O-SO 122 0 min 0,000 mm 2,0 UV-I 199 W/m 1,1 C 5,5 C 4,0 km/h (1 Bft) 0,00 %
25.03.2015 08:45 6,0 C 72 % 1004,1 hPa 0,0 l/m 4,0 km/h (1 Bft) O-SO 114 0 min 0,000 mm 2,0 UV-I 211 W/m 1,3 C 6,0 C 4,0 km/h (1 Bft) 0,00 %
25.03.2015 09:00 6,9 C 70 % 1003,7 hPa 0,0 l/m 9,0 km/h (2 Bft) O 98 0 min 0,000 mm 2,0 UV-I 222 W/m 1,8 C 4,9 C 11,9 km/h (2 Bft) 0,00 %
25.03.2015 09:15 7,0 C 71 % 1003,6 hPa 0,0 l/m 1,4 km/h (1 Bft) SO 125 0 min 0,000 mm 2,0 UV-I 244 W/m 2,1 C 7,0 C 4,0 km/h (1 Bft) 0,00 %
25.03.2015 09:30 7,6 C 71 % 1003,7 hPa 0,0 l/m 0,0 km/h (0 Bft) O 91 0 min 0,000 mm 2,0 UV-I 225 W/m 2,7 C 7,6 C 0,0 km/h (0 Bft) 0,00 %
25.03.2015 09:45 8,2 C 68 % 1003,3 hPa 0,0 l/m 4,0 km/h (1 Bft) O 79 0 min 0,000 mm 2,0 UV-I 266 W/m 2,7 C 8,2 C 7,9 km/h (2 Bft) 0,00 %
25.03.2015 10:00 9,0 C 64 % 1003,0 hPa 0,0 l/m 10,8 km/h (2 Bft) O-SO 113 0 min 0,000 mm 3,0 UV-I 268 W/m 2,6 C 6,0 C 15,8 km/h (3 Bft) 0,00 %
25.03.2015 10:15 9,3 C 62 % 1002,9 hPa 0,0 l/m 10,4 km/h (2 Bft) O 84 0 min 0,000 mm 3,0 UV-I 298 W/m 2,4 C 6,6 C 11,9 km/h (2 Bft) 0,00 %
25.03.2015 10:30 9,7 C 62 % 1002,6 hPa 0,0 l/m 7,9 km/h (2 Bft) O-NO 62 0 min 0,000 mm 3,0 UV-I 311 W/m 2,8 C 8,6 C 11,9 km/h (2 Bft) 0,00 %
25.03.2015 10:45 9,8 C 61 % 1002,2 hPa 0,0 l/m 9,4 km/h (2 Bft) O 89 0 min 0,000 mm 3,0 UV-I 298 W/m 2,6 C 7,7 C 11,9 km/h (2 Bft) 0,00 %
25.03.2015 11:00 10,1 C 61 % 1001,8 hPa 0,0 l/m 12,2 km/h (2 Bft) O 92 0 min 0,000 mm 3,0 UV-I 305 W/m 2,9 C 6,5 C 15,8 km/h (3 Bft) 0,00 %
25.03.2015 11:15 10,2 C 60 % 1001,7 hPa 0,0 l/m 11,5 km/h (2 Bft) O 100 0 min 0,000 mm 3,0 UV-I 298 W/m 2,8 C 7,0 C 11,9 km/h (2 Bft) 0,00 %
25.03.2015 11:30 10,3 C 59 % 1001,5 hPa 0,0 l/m 20,9 km/h (4 Bft) O 100 0 min 0,000 mm 3,0 UV-I 291 W/m 2,6 C 3,4 C 24,1 km/h (4 Bft) 0,00 %
25.03.2015 11:45 10,4 C 59 % 1001,6 hPa 0,0 l/m 4,3 km/h (1 Bft) S-SO 148 0 min 0,000 mm 2,0 UV-I 292 W/m 2,7 C 10,4 C 7,9 km/h (2 Bft) 0,00 %
25.03.2015 12:00 10,7 C 59 % 1001,4 hPa 0,0 l/m 9,4 km/h (2 Bft) O-SO 102 0 min 0,000 mm 2,0 UV-I 278 W/m 3,0 C 8,7 C 15,8 km/h (3 Bft) 0,00 %
25.03.2015 12:15 10,7 C 60 % 1001,1 hPa 0,0 l/m 9,0 km/h (2 Bft) SO 146 0 min 0,000 mm 3,0 UV-I 281 W/m 3,3 C 9,0 C 11,9 km/h (2 Bft) 0,00 %
25.03.2015 12:30 11,2 C 59 % 1000,8 hPa 0,0 l/m 3,2 km/h (1 Bft) O-SO 110 0 min 0,000 mm 3,0 UV-I 301 W/m 3,5 C 11,2 C 7,9 km/h (2 Bft) 0,00 %
25.03.2015 12:45 11,6 C 58 % 1000,5 hPa 0,0 l/m 14,0 km/h (3 Bft) O-SO 103 0 min 0,000 mm 3,0 UV-I 308 W/m 3,6 C 7,5 C 15,8 km/h (3 Bft) 0,00 %
25.03.2015 13:00 11,9 C 55 % 1000,3 hPa 0,0 l/m 15,5 km/h (3 Bft) O-SO 104 0 min 0,000 mm 3,0 UV-I 319 W/m 3,2 C 7,2 C 24,1 km/h (4 Bft) 0,00 %
25.03.2015 13:15 12,1 C 55 % 1000,0 hPa 0,0 l/m 18,4 km/h (3 Bft) O 85 0 min 0,000 mm 2,0 UV-I 293 W/m 3,3 C 6,5 C 24,1 km/h (4 Bft) 0,00 %
25.03.2015 13:30 12,4 C 55 % 999,9 hPa 0,0 l/m 11,9 km/h (2 Bft) O 97 0 min 0,000 mm 2,0 UV-I 275 W/m 3,6 C 9,3 C 15,8 km/h (3 Bft) 0,00 %
25.03.2015 13:45 12,8 C 54 % 999,6 hPa 0,0 l/m 7,9 km/h (2 Bft) O-SO 114 0 min 0,000 mm 2,0 UV-I 280 W/m 3,7 C 11,9 C 15,8 km/h (3 Bft) 0,00 %
25.03.2015 14:00 13,1 C 53 % 999,5 hPa 0,0 l/m 13,0 km/h (3 Bft) O-NO 64 0 min 0,000 mm 2,0 UV-I 281 W/m 3,7 C 9,7 C 15,8 km/h (3 Bft) 0,00 %
25.03.2015 14:15 13,5 C 51 % 999,3 hPa 0,0 l/m 25,9 km/h (4 Bft) O 83 0 min 0,000 mm 2,0 UV-I 271 W/m 3,6 C 6,4 C 36,0 km/h (5 Bft) 0,00 %
25.03.2015 14:30 13,6 C 51 % 999,2 hPa 0,0 l/m 18,4 km/h (3 Bft) SO 131 0 min 0,000 mm 2,0 UV-I 255 W/m 3,7 C 8,4 C 24,1 km/h (4 Bft) 0,00 %
25.03.2015 14:45 13,8 C 51 % 999,1 hPa 0,0 l/m 22,3 km/h (4 Bft) S 187 0 min 0,000 mm 2,0 UV-I 228 W/m 3,8 C 7,6 C 28,1 km/h (4 Bft) 0,00 %
25.03.2015 15:00 13,9 C 49 % 998,8 hPa 0,0 l/m 14,0 km/h (3 Bft) O 93 0 min 0,000 mm 1,0 UV-I 180 W/m 3,4 C 10,2 C 19,8 km/h (3 Bft) 0,00 %
25.03.2015 15:15 13,9 C 48 % 998,7 hPa 0,0 l/m 18,0 km/h (3 Bft) S 171 0 min 0,000 mm 1,0 UV-I 155 W/m 3,1 C 8,9 C 28,1 km/h (4 Bft) 0,00 %
25.03.2015 15:30 13,9 C 48 % 998,7 hPa 0,0 l/m 10,4 km/h (2 Bft) S 172 0 min 0,000 mm 1,0 UV-I 135 W/m 3,1 C 11,7 C 15,8 km/h (3 Bft) 0,00 %
25.03.2015 15:45 13,9 C 47 % 998,8 hPa 0,0 l/m 10,8 km/h (2 Bft) O-SO 119 0 min 0,000 mm 1,0 UV-I 129 W/m 2,8 C 11,5 C 15,8 km/h (3 Bft) 0,00 %
25.03.2015 16:00 13,9 C 45 % 998,6 hPa 0,0 l/m 15,8 km/h (3 Bft) O 81 0 min 0,000 mm 1,0 UV-I 108 W/m 2,2 C 9,6 C 19,8 km/h (3 Bft) 0,00 %
25.03.2015 16:15 13,7 C 45 % 998,6 hPa 0,0 l/m 8,3 km/h (2 Bft) O-SO 107 0 min 0,000 mm 1,0 UV-I 97 W/m 2,0 C 12,6 C 11,9 km/h (2 Bft) 0,00 %
25.03.2015 16:30 13,7 C 43 % 998,6 hPa 0,0 l/m 17,3 km/h (3 Bft) SO 138 0 min 0,000 mm 1,0 UV-I 81 W/m 1,4 C 8,9 C 32,0 km/h (5 Bft) 0,00 %
25.03.2015 16:45 13,5 C 45 % 999,1 hPa 0,0 l/m 15,8 km/h (3 Bft) O-SO 111 0 min 0,000 mm 1,0 UV-I 77 W/m 1,8 C 9,1 C 19,8 km/h (3 Bft) 0,00 %
25.03.2015 17:00 13,2 C 47 % 998,9 hPa 0,0 l/m 17,3 km/h (3 Bft) SO 131 0 min 0,000 mm 0,0 UV-I 48 W/m 2,1 C 8,2 C 19,8 km/h (3 Bft) 0,00 %
25.03.2015 17:15 12,9 C 48 % 999,2 hPa 0,0 l/m 4,7 km/h (1 Bft) O 101 0 min 0,000 mm 0,0 UV-I 35 W/m 2,2 C 12,9 C 7,9 km/h (2 Bft) 0,00 %
25.03.2015 17:30 12,7 C 49 % 999,3 hPa 0,0 l/m 11,9 km/h (2 Bft) O-SO 110 0 min 0,000 mm 0,0 UV-I 23 W/m 2,3 C 9,7 C 15,8 km/h (3 Bft) 0,00 %
25.03.2015 17:45 12,4 C 50 % 999,5 hPa 0,0 l/m 4,0 km/h (1 Bft) O-NO 78 0 min 0,000 mm 0,0 UV-I 6 W/m 2,3 C 12,4 C 7,9 km/h (2 Bft) 0,00 %
25.03.2015 18:00 12,2 C 50 % 999,6 hPa 0,0 l/m 11,5 km/h (2 Bft) O-NO 72 0 min 0,000 mm 0,0 UV-I 0 W/m 2,1 C 9,3 C 15,8 km/h (3 Bft) 0,00 %
25.03.2015 18:15 12,0 C 51 % 999,8 hPa 0,0 l/m 6,5 km/h (2 Bft) O-SO 104 0 min 0,000 mm 0,0 UV-I 0 W/m 2,2 C 12,0 C 7,9 km/h (2 Bft) 0,00 %
25.03.2015 18:30 11,9 C 53 % 999,7 hPa 0,0 l/m 9,0 km/h (2 Bft) O 98 0 min 0,000 mm 0,0 UV-I 0 W/m 2,6 C 10,2 C 11,9 km/h (2 Bft) 0,00 %
25.03.2015 18:45 11,7 C 53 % 999,7 hPa 0,0 l/m 13,0 km/h (3 Bft) O-SO 108 0 min 0,000 mm 0,0 UV-I 0 W/m 2,4 C 8,0 C 15,8 km/h (3 Bft) 0,00 %
25.03.2015 19:00 11,6 C 56 % 999,9 hPa 0,0 l/m 14,0 km/h (3 Bft) O-NO 76 0 min 0,000 mm 0,0 UV-I 0 W/m 3,1 C 7,5 C 19,8 km/h (3 Bft) 0,00 %
25.03.2015 19:15 11,5 C 57 % 999,7 hPa 0,0 l/m 13,3 km/h (3 Bft) O 86 0 min 0,000 mm 0,0 UV-I 0 W/m 3,3 C 7,7 C 19,8 km/h (3 Bft) 0,00 %
25.03.2015 19:30 11,3 C 59 % 999,6 hPa 0,0 l/m 11,9 km/h (2 Bft) O-SO 110 0 min 0,000 mm 0,0 UV-I 0 W/m 3,6 C 8,1 C 19,8 km/h (3 Bft) 0,00 %
25.03.2015 19:45 11,2 C 59 % 999,7 hPa 0,0 l/m 9,4 km/h (2 Bft) O-SO 116 0 min 0,000 mm 0,0 UV-I 0 W/m 3,5 C 9,3 C 11,9 km/h (2 Bft) 0,00 %
25.03.2015 20:00 11,1 C 60 % 999,8 hPa 0,0 l/m 12,2 km/h (2 Bft) S-SO 153 0 min 0,000 mm 0,0 UV-I 0 W/m 3,6 C 7,7 C 15,8 km/h (3 Bft) 0,00 %
25.03.2015 20:15 11,0 C 59 % 999,8 hPa 0,0 l/m 23,0 km/h (4 Bft) O 90 0 min 0,000 mm 0,0 UV-I 0 W/m 3,3 C 3,7 C 28,1 km/h (4 Bft) 0,00 %
25.03.2015 20:30 11,0 C 59 % 999,6 hPa 0,0 l/m 18,4 km/h (3 Bft) O-SO 105 0 min 0,000 mm 0,0 UV-I 0 W/m 3,3 C 5,1 C 24,1 km/h (4 Bft) 0,00 %
25.03.2015 20:45 10,7 C 59 % 999,6 hPa 0,0 l/m 9,0 km/h (2 Bft) O-NO 78 0 min 0,000 mm 0,0 UV-I 0 W/m 3,0 C 9,0 C 11,9 km/h (2 Bft) 0,00 %
25.03.2015 21:00 10,6 C 59 % 999,5 hPa 0,0 l/m 13,0 km/h (3 Bft) O-NO 72 0 min 0,000 mm 0,0 UV-I 0 W/m 2,9 C 6,7 C 15,8 km/h (3 Bft) 0,00 %
25.03.2015 21:15 10,7 C 58 % 999,4 hPa 0,0 l/m 8,3 km/h (2 Bft) O-SO 111 0 min 0,000 mm 0,0 UV-I 0 W/m 2,8 C 9,4 C 15,8 km/h (3 Bft) 0,00 %
25.03.2015 21:30 10,6 C 59 % 999,3 hPa 0,0 l/m 7,9 km/h (2 Bft) O 95 0 min 0,000 mm 0,0 UV-I 0 W/m 2,9 C 9,5 C 11,9 km/h (2 Bft) 0,00 %
25.03.2015 21:45 10,4 C 60 % 999,5 hPa 0,0 l/m 16,6 km/h (3 Bft) O 91 0 min 0,000 mm 0,0 UV-I 0 W/m 3,0 C 5,0 C 24,1 km/h (4 Bft) 0,00 %
25.03.2015 22:00 10,4 C 61 % 999,2 hPa 0,0 l/m 18,0 km/h (3 Bft) O-SO 123 0 min 0,000 mm 0,0 UV-I 0 W/m 3,2 C 4,5 C 24,1 km/h (4 Bft) 0,00 %
25.03.2015 22:15 10,3 C 61 % 999,2 hPa 0,0 l/m 18,0 km/h (3 Bft) O-SO 103 0 min 0,000 mm 0,0 UV-I 0 W/m 3,1 C 4,3 C 19,8 km/h (3 Bft) 0,00 %
25.03.2015 22:30 10,0 C 62 % 999,3 hPa 0,0 l/m 10,4 km/h (2 Bft) O 84 0 min 0,000 mm 0,0 UV-I 0 W/m 3,1 C 7,4 C 11,9 km/h (2 Bft) 0,00 %
25.03.2015 22:45 9,9 C 63 % 999,4 hPa 0,0 l/m 22,0 km/h (4 Bft) O 86 0 min 0,000 mm 0,0 UV-I 0 W/m 3,2 C 2,5 C 28,1 km/h (4 Bft) 0,00 %
25.03.2015 23:00 9,9 C 63 % 999,4 hPa 0,0 l/m 20,5 km/h (4 Bft) O 100 0 min 0,000 mm 0,0 UV-I 0 W/m 3,2 C 3,0 C 24,1 km/h (4 Bft) 0,00 %
25.03.2015 23:15 9,8 C 64 % 999,3 hPa 0,0 l/m 13,0 km/h (3 Bft) O 100 0 min 0,000 mm 0,0 UV-I 0 W/m 3,3 C 5,8 C 15,8 km/h (3 Bft) 0,00 %
25.03.2015 23:30 9,8 C 65 % 999,5 hPa 0,0 l/m 14,8 km/h (3 Bft) O 87 0 min 0,000 mm 0,0 UV-I 0 W/m 3,5 C 5,0 C 28,1 km/h (4 Bft) 0,00 %
25.03.2015 23:45 9,8 C 65 % 999,7 hPa 0,0 l/m 11,5 km/h (2 Bft) SO 135 0 min 0,000 mm 0,0 UV-I 0 W/m 3,5 C 6,5 C 15,8 km/h (3 Bft) 0,00 %
_ Min-Zeit 05:00 16:30 16:00 - 00:00 - - - - - - 04:15 05:00 00:00 00:00
Minimum _ 1,0 C 43 % 998,6 hPa - 0,0 km/h (0 Bft) - - - - - - -1,3 C 1,0 C 0,0 km/h (0 Bft) 0,00 %
_ Max-Zeit 15:00 06:30 00:00 00:00 14:15 - - 06:30 00:00 10:00 13:00 14:45 17:15 14:15 00:00
Maximum _ 13,9 C 88 % 1007,0 hPa 0,0 l/m 25,9 km/h
O (4 Bft)
- - 15 min 0,000 mm 3,0 UV-I 319 W/m 3,8 C 12,9 C 36,0 km/h
O (5 Bft)
0,00 %
Durchschnitt _ 8,2 C 66 % 1002,2 hPa #0,0 l/m 8,0 km/h (2 Bft) O - #45 min. #0,000 mm 1,9 UV-I 195 W/m 1,9 C 6,1 C 11,1 km/h (2 Bft) 0,00 %